Tracking 25734 objects as of 28-May-2022
HD Live streaming from Space Station
objects crossing your sky now

YUNHAI 1-02 DEB

Track YUNHAI 1-02 DEB now!
10-day predictions


NORAD ID: 48205
Int'l Code: 2019-063Z
Perigee: 618.7 km
Apogee: 913.8 km
Inclination: 98.5 °
Period: 100.0 minutes
Semi major axis: 7137 km
RCS: Unknown
Launch date: September 25, 2019
Source: People's Republic of China (PRC)
Launch site: Jiuquan Satellite Launch Center, China (JSC)

Note: This is SATELLITE DEBRIS
aabbcc
Your satellite tracking list
Your tracking list is empty




NASA's NSSDC Master Catalog

Two Line Element Set (TLE):
1 48205U 19063Z   22147.77842181  .00169513  00000-0  41118-1 0  9993
2 48205  98.4541 146.9989 0206730 324.5981  34.1628 14.39818701 60099
Source of the keplerian elements: AFSPC